Location: Deerlick Astronomy Village
(33.5614°N, 82.7631°W)
Time: 15:21:42
(UTC-04:00)

Iridium 66 - Visible Passes

Search period start: 18 April 2015 00:00
Search period end: 28 April 2015 00:00
Orbit: 776 x 779 km, 86.4° (Epoch: 18 April)

Date Brightness Start Highest point End Pass type
(mag) Time Alt. Az. Time Alt. Az. Time Alt. Az.
18 Apr 9.1 01:07:47 10° N 01:07:47 10° N 01:07:47 10° N visible
19 Apr 9.0 00:34:11 10° N 00:34:11 10° N 00:34:11 10° N visible
21 Apr 8.9 01:07:25 12° NNW 01:07:25 12° NNW 01:07:44 10° N visible
22 Apr 8.8 00:33:47 13° N 00:33:47 13° N 00:34:22 10° N visible
23 Apr 8.7 00:00:10 12° NNE 00:00:10 12° NNE 00:00:36 10° NNE visible
24 Apr 8.9 01:06:58 13° NNW 01:06:58 13° NNW 01:07:30 10° NNW visible
25 Apr 8.6 00:33:20 16° N 00:33:20 16° N 00:34:24 10° N visible
25 Apr 8.4 23:59:40 17° N 23:59:40 17° N 00:00:52 10° N visible
26 Apr 8.4 23:26:00 15° NNE 23:26:00 15° NNE 23:26:56 10° NNE visible
27 Apr 8.8 01:06:26 12° NW 01:06:26 12° NW 01:07:02 10° NNW visible
27 Apr 8.5 22:52:19 10° NE 22:52:19 10° NE 22:52:20 10° NE visible
